| time (UTC) | temp F | wind direction | speed MPH | gust MPH | rain 1hr in | rain 24hr in | rain mn in | humidity % | barometer mb |
| 20260507122957 | 49 | 163 | 0.0 | 0.0 | 0.00 | 0.01 | 0.00 | 92 | 1020.6 |
| 20260507121952 | 49 | 155 | 0.0 | 0.0 | 0.00 | 0.01 | 0.00 | 92 | 1020.4 |
| 20260507115758 | 48 | 259 | 0.0 | 0.0 | 0.00 | 0.01 | 0.00 | 92 | 1020.2 |
| 20260507113538 | 48 | 257 | 0.0 | 0.0 | 0.00 | 0.01 | 0.00 | 92 | 1019.8 |
| 20260507112537 | 48 | 264 | 0.0 | 0.0 | 0.00 | 0.01 | 0.00 | 92 | 1019.6 |
| 20260507111548 | 48 | 216 | 0.0 | 0.0 | 0.00 | 0.01 | 0.00 | 92 | 1019.4 |
| 20260507110543 | 48 | 203 | 0.0 | 0.0 | 0.00 | 0.01 | 0.00 | 92 | 1019.0 |
| 20260507105551 | 49 | 202 | 0.0 | 0.0 | 0.00 | 0.01 | 0.00 | 92 | 1019.0 |
| 20260507103434 | 49 | 327 | 0.0 | 0.0 | 0.00 | 0.01 | 0.00 | 92 | 1018.7 |
| 20260507102405 | 49 | 327 | 0.0 | 0.0 | 0.00 | 0.01 | 0.00 | 92 | 1018.4 |
| 20260507101410 | 49 | 327 | 0.0 | 0.0 | 0.00 | 0.01 | 0.00 | 92 | 1018.3 |
| 20260507095238 | 49 | 326 | 0.0 | 0.0 | 0.00 | 0.01 | 0.00 | 92 | 1018.4 |
| 20260507094219 | 50 | 326 | 0.0 | 0.0 | 0.00 | 0.01 | 0.00 | 92 | 1018.4 |
| 20260507093244 | 50 | 326 | 0.0 | 0.0 | 0.00 | 0.01 | 0.00 | 92 | 1018.4 |
| 20260507092242 | 50 | 326 | 0.0 | 0.0 | 0.00 | 0.01 | 0.00 | 92 | 1018.2 |
| 20260507091226 | 50 | 326 | 0.0 | 0.0 | 0.00 | 0.01 | 0.00 | 92 | 1018.2 |
| 20260507090225 | 50 | 326 | 0.0 | 0.0 | 0.00 | 0.01 | 0.00 | 92 | 1018.3 |
| 20260507085222 | 50 | 344 | 0.0 | 0.0 | 0.00 | 0.01 | 0.00 | 92 | 1018.3 |
| 20260507084203 | 51 | 344 | 0.0 | 0.0 | 0.00 | 0.01 | 0.00 | 91 | 1018.0 |
| 20260507083200 | 51 | 344 | 0.0 | 0.0 | 0.00 | 0.01 | 0.00 | 91 | 1018.0 |
| 20260507082208 | 51 | 344 | 0.0 | 2.0 | 0.00 | 0.01 | 0.00 | 91 | 1017.8 |
| 20260507081150 | 51 | 344 | 0.0 | 0.0 | 0.00 | 0.01 | 0.00 | 91 | 1017.8 |
| 20260507080145 | 51 | 345 | 0.0 | 0.0 | 0.00 | 0.01 | 0.00 | 91 | 1017.8 |
| 20260507075155 | 51 | 336 | 0.0 | 2.0 | 0.00 | 0.01 | 0.00 | 91 | 1018.0 |
| 20260507074211 | 51 | 327 | 0.0 | 2.0 | 0.00 | 0.01 | 0.00 | 91 | 1018.1 |
| 20260507072054 | 52 | 327 | 0.0 | 0.0 | 0.00 | 0.01 | 0.00 | 90 | 1018.2 |
| 20260507065949 | 52 | 20 | 0.0 | 0.0 | 0.00 | 0.01 | 0.00 | 90 | 1018.0 |
| 20260507065011 | 52 | 22 | 0.0 | 0.0 | 0.00 | 0.01 | 0.00 | 90 | 1018.1 |
| 20260507064024 | 52 | 22 | 0.0 | 2.0 | 0.00 | 0.01 | 0.00 | 89 | 1017.9 |
| 20260507063014 | 52 | 54 | 0.0 | 0.0 | 0.00 | 0.01 | 0.00 | 88 | 1017.7 |
| 20260507062034 | 53 | 54 | 0.0 | 0.0 | 0.00 | 0.01 | 0.00 | 88 | 1017.5 |
| 20260507061055 | 53 | 55 | 0.0 | 0.0 | 0.00 | 0.01 | 0.00 | 88 | 1017.4 |
| 20260507060048 | 53 | 67 | 0.0 | 3.0 | 0.00 | 0.01 | 0.00 | 87 | 1017.4 |
| 20260507053850 | 54 | 38 | 0.0 | 1.0 | 0.00 | 0.01 | 0.00 | 87 | 1017.7 |
| 20260507052902 | 55 | 29 | 0.0 | 3.0 | 0.00 | 0.01 | 0.00 | 87 | 1017.7 |
| 20260507051830 | 55 | 42 | 0.0 | 2.0 | 0.00 | 0.01 | 0.00 | 86 | 1017.8 |
| 20260507050844 | 55 | 48 | 0.0 | 2.0 | 0.00 | 0.01 | 0.00 | 86 | 1017.7 |
| 20260507045833 | 56 | 36 | 1.0 | 4.0 | 0.00 | 0.01 | 0.01 | 85 | 1017.8 |
| 20260507044824 | 56 | 24 | 0.0 | 4.0 | 0.00 | 0.01 | 0.01 | 85 | 1017.8 |
| 20260507043844 | 57 | 34 | 1.0 | 6.0 | 0.00 | 0.01 | 0.01 | 85 | 1018.0 |
| 20260507042905 | 57 | 11 | 1.0 | 6.0 | 0.00 | 0.01 | 0.01 | 85 | 1017.9 |
| 20260507041839 | 57 | 10 | 1.0 | 5.0 | 0.00 | 0.01 | 0.01 | 85 | 1018.0 |
| 20260507034624 | 57 | 50 | 2.0 | 7.0 | 0.00 | 0.01 | 0.01 | 85 | 1018.0 |
| 20260507033633 | 57 | 355 | 2.0 | 7.0 | 0.00 | 0.01 | 0.01 | 85 | 1017.9 |
| 20260507032613 | 57 | 346 | 1.0 | 8.0 | 0.00 | 0.01 | 0.01 | 84 | 1017.9 |
| 20260507031605 | 57 | 0 | 3.0 | 8.0 | 0.00 | 0.01 | 0.01 | 84 | 1017.7 |
| 20260507030617 | 57 | 5 | 4.0 | 8.0 | 0.00 | 0.01 | 0.01 | 84 | 1017.6 |
| 20260507025613 | 57 | 339 | 3.0 | 8.0 | 0.00 | 0.01 | 0.01 | 84 | 1017.5 |
| 20260507024614 | 57 | 32 | 3.0 | 8.0 | 0.00 | 0.01 | 0.01 | 84 | 1017.3 |
| 20260507022453 | 58 | 27 | 4.0 | 9.0 | 0.00 | 0.01 | 0.01 | 84 | 1016.9 |
| 20260507021421 | 58 | 13 | 3.0 | 9.0 | 0.00 | 0.01 | 0.01 | 84 | 1016.8 |
| 20260507020347 | 58 | 16 | 4.0 | 8.0 | 0.00 | 0.01 | 0.01 | 84 | 1016.4 |
| 20260507015354 | 58 | 12 | 4.0 | 8.0 | 0.00 | 0.01 | 0.01 | 85 | 1016.1 |
| 20260507014351 | 58 | 0 | 3.0 | 8.0 | 0.00 | 0.01 | 0.01 | 85 | 1015.9 |
| 20260507013322 | 58 | 5 | 3.0 | 8.0 | 0.00 | 0.01 | 0.01 | 85 | 1015.7 |
| 20260507012252 | 58 | 41 | 3.0 | 11.0 | 0.00 | 0.01 | 0.01 | 85 | 1015.5 |
| 20260507011242 | 58 | 18 | 4.0 | 11.0 | 0.00 | 0.01 | 0.01 | 85 | 1015.4 |
| 20260507010234 | 58 | 32 | 4.0 | 9.0 | 0.00 | 0.01 | 0.01 | 84 | 1015.4 |
| 20260507005225 | 58 | 26 | 4.0 | 11.0 | 0.00 | 0.01 | 0.01 | 85 | 1015.3 |
| 20260507004205 | 58 | 11 | 4.0 | 11.0 | 0.00 | 0.01 | 0.01 | 85 | 1015.1 |
| 20260507003136 | 58 | 32 | 5.0 | 11.0 | 0.00 | 0.01 | 0.01 | 85 | 1015.0 |
| 20260507002135 | 58 | 13 | 5.0 | 11.0 | 0.00 | 0.01 | 0.01 | 85 | 1014.8 |
| 20260507001105 | 58 | 19 | 5.0 | 11.0 | 0.00 | 0.01 | 0.01 | 84 | 1014.8 |
| 20260506235031 | 58 | 355 | 6.0 | 13.0 | 0.00 | 0.01 | 0.01 | 84 | 1014.6 |
| 20260506231816 | 58 | 5 | 6.0 | 12.0 | 0.00 | 0.01 | 0.01 | 84 | 1014.5 |
| 20260506230751 | 58 | 0 | 5.0 | 12.0 | 0.00 | 0.01 | 0.01 | 84 | 1014.6 |
| 20260506225804 | 58 | 331 | 5.0 | 12.0 | 0.00 | 0.01 | 0.01 | 84 | 1014.4 |
| 20260506224825 | 58 | 329 | 5.0 | 11.0 | 0.00 | 0.01 | 0.01 | 84 | 1014.3 |
| 20260506223802 | 58 | 0 | 5.0 | 13.0 | 0.00 | 0.01 | 0.01 | 84 | 1014.5 |
| 20260506222740 | 58 | 337 | 5.0 | 13.0 | 0.00 | 0.01 | 0.01 | 84 | 1014.2 |
| 20260506221736 | 58 | 33 | 4.0 | 11.0 | 0.00 | 0.01 | 0.01 | 84 | 1013.9 |
| 20260506220717 | 58 | 343 | 4.0 | 9.0 | 0.00 | 0.01 | 0.01 | 84 | 1013.9 |
| 20260506215707 | 58 | 323 | 5.0 | 11.0 | 0.00 | 0.01 | 0.01 | 84 | 1014.0 |
| 20260506214637 | 58 | 333 | 5.0 | 12.0 | 0.00 | 0.01 | 0.01 | 84 | 1014.1 |
| 20260506213621 | 58 | 9 | 6.0 | 12.0 | 0.00 | 0.01 | 0.01 | 83 | 1014.2 |
| 20260506212644 | 58 | 355 | 5.0 | 12.0 | 0.00 | 0.01 | 0.01 | 83 | 1014.0 |
| 20260506205324 | 57 | 33 | 4.0 | 9.0 | 0.00 | 0.01 | 0.01 | 84 | 1014.2 |
| 20260506204301 | 57 | 295 | 5.0 | 10.0 | 0.00 | 0.01 | 0.01 | 84 | 1014.6 |
| 20260506203240 | 57 | 348 | 3.0 | 10.0 | 0.00 | 0.01 | 0.01 | 85 | 1014.6 |
| 20260506202244 | 57 | 331 | 3.0 | 10.0 | 0.00 | 0.01 | 0.01 | 84 | 1014.7 |
| 20260506201229 | 56 | 348 | 5.0 | 10.0 | 0.00 | 0.01 | 0.01 | 84 | 1014.5 |
| 20260506200215 | 57 | 344 | 4.0 | 9.0 | 0.00 | 0.01 | 0.01 | 84 | 1014.8 |
| 20260506195231 | 57 | 323 | 4.0 | 8.0 | 0.00 | 0.01 | 0.01 | 85 | 1014.4 |
| 20260506194228 | 56 | 5 | 4.0 | 11.0 | 0.00 | 0.01 | 0.01 | 85 | 1014.6 |
| 20260506193226 | 56 | 319 | 4.0 | 11.0 | 0.00 | 0.01 | 0.01 | 85 | 1014.5 |
| 20260506192212 | 56 | 321 | 3.0 | 9.0 | 0.00 | 0.01 | 0.01 | 85 | 1014.7 |
| 20260506191233 | 56 | 17 | 3.0 | 9.0 | 0.00 | 0.01 | 0.01 | 85 | 1014.6 |
| 20260506190209 | 56 | 16 | 5.0 | 12.0 | 0.00 | 0.01 | 0.01 | 84 | 1014.0 |
| 20260506185216 | 57 | 343 | 6.0 | 15.0 | 0.00 | 0.01 | 0.01 | 85 | 1013.7 |
| 20260506184144 | 57 | 355 | 8.0 | 17.0 | 0.00 | 0.01 | 0.01 | 86 | 1013.2 |
| 20260506183205 | 56 | 327 | 8.0 | 17.0 | 0.00 | 0.01 | 0.01 | 87 | 1013.0 |
| 20260506182139 | 55 | 11 | 5.0 | 11.0 | 0.00 | 0.01 | 0.01 | 87 | 1013.3 |
| 20260506181107 | 55 | 0 | 6.0 | 13.0 | 0.00 | 0.01 | 0.01 | 88 | 1013.6 |
| 20260506174927 | 54 | 9 | 4.0 | 10.0 | 0.00 | 0.01 | 0.01 | 89 | 1013.5 |
| 20260506173936 | 54 | 37 | 4.0 | 11.0 | 0.00 | 0.01 | 0.01 | 89 | 1013.6 |
| 20260506172953 | 54 | 336 | 5.0 | 14.0 | 0.00 | 0.01 | 0.01 | 89 | 1013.9 |
| 20260506171947 | 54 | 5 | 6.0 | 14.0 | 0.00 | 0.01 | 0.01 | 89 | 1014.2 |
| 20260506170957 | 54 | 355 | 7.0 | 13.0 | 0.00 | 0.01 | 0.01 | 90 | 1014.4 |
| 20260506170005 | 54 | 348 | 6.0 | 12.0 | 0.00 | 0.01 | 0.01 | 89 | 1015.2 |
| 20260506164952 | 54 | 20 | 4.0 | 9.0 | 0.00 | 0.01 | 0.01 | 89 | 1015.0 |
| 20260506163956 | 54 | 24 | 3.0 | 10.0 | 0.00 | 0.01 | 0.01 | 89 | 1014.8 |
| 20260506162938 | 54 | 17 | 5.0 | 13.0 | 0.00 | 0.01 | 0.01 | 89 | 1014.3 |
| 20260506161924 | 54 | 30 | 5.0 | 13.0 | 0.00 | 0.01 | 0.01 | 89 | 1013.6 |
| 20260506160936 | 53 | 34 | 0.0 | 0.0 | 0.00 | 0.00 | 0.00 | 88 | 1015.6 |
| 20260506160000 | 53 | 310 | 0.0 | 0.0 | 0.00 | 0.00 | 0.00 | 87 | 1016.1 |
| 20260506154957 | 53 | 302 | 2.0 | 13.0 | 0.00 | 0.00 | 0.00 | 86 | 1015.6 |
| 20260506154014 | 53 | 9 | 5.0 | 20.0 | 0.00 | 0.00 | 0.00 | 85 | 1014.5 |
| 20260506152950 | 54 | 309 | 9.0 | 20.0 | 0.00 | 0.00 | 0.00 | 85 | 1014.1 |
| 20260506151926 | 54 | 276 | 5.0 | 11.0 | 0.00 | 0.00 | 0.00 | 85 | 1014.8 |
| 20260506150929 | 53 | 0 | 7.0 | 13.0 | 0.00 | 0.00 | 0.00 | 85 | 1014.1 |
| 20260506145940 | 53 | 11 | 4.0 | 13.0 | 0.00 | 0.00 | 0.00 | 85 | 1014.6 |
| 20260506144906 | 53 | 344 | 5.0 | 13.0 | 0.00 | 0.00 | 0.00 | 85 | 1014.6 |
| 20260506143915 | 53 | 331 | 6.0 | 15.0 | 0.00 | 0.00 | 0.00 | 85 | 1014.5 |
| 20260506142940 | 53 | 350 | 6.0 | 15.0 | 0.00 | 0.00 | 0.00 | 86 | 1013.9 |
| 20260506135648 | 52 | 0 | 7.0 | 14.0 | 0.00 | 0.00 | 0.00 | 86 | 1013.5 |
| 20260506134650 | 52 | 332 | 5.0 | 14.0 | 0.00 | 0.00 | 0.00 | 87 | 1013.4 |
| 20260506133713 | 52 | 346 | 6.0 | 12.0 | 0.00 | 0.00 | 0.00 | 87 | 1013.4 |
| 20260506132733 | 52 | 22 | 8.0 | 14.0 | 0.00 | 0.00 | 0.00 | 87 | 1013.1 |
| 20260506130618 | 52 | 329 | 6.0 | 15.0 | 0.00 | 0.00 | 0.00 | 88 | 1013.2 |
| 20260506125619 | 52 | 5 | 7.0 | 14.0 | 0.00 | 0.00 | 0.00 | 88 | 1013.1 |
| 20260506124605 | 52 | 15 | 7.0 | 14.0 | 0.00 | 0.00 | 0.00 | 88 | 1012.7 |
| 20260506123537 | 52 | 337 | 6.0 | 14.0 | 0.00 | 0.00 | 0.00 | 88 | 1012.8 |